• In Hungary
  • List of Countries
  • For 7 days
  • Water Temperature
  • Satellite Maps
  • Weather Map
  • News
  • Weather Widgets
  • user-avatar
    Login

    Hourly Weather Colón

    Today, 20 February, Tuesday

    Time Temperature Precipitation Wind Pressure Humidity
    00:00 +25°C° 0.1 mm 5 mps 759 mmHg 93%
    01:00 +25°C° 0 mm 5 mps 759 mmHg 94%
    02:00 +25°C° 0.2 mm 5 mps 759 mmHg 94%
    03:00 +25°C° 0.2 mm 5 mps 758 mmHg 94%
    04:00 +25°C° 0.2 mm 5 mps 758 mmHg 94%
    05:00 +25°C° 0.2 mm 5 mps 758 mmHg 94%
    06:00 +25°C° 0.2 mm 5 mps 759 mmHg 94%
    07:00 +25°C° 0 mm 4 mps 759 mmHg 94%
    08:00 +26°C° 0.2 mm 4 mps 759 mmHg 88%
    09:00 +27°C° 0.2 mm 4 mps 759 mmHg 83%
    10:00 +28°C° 0.2 mm 4 mps 760 mmHg 77%
    11:00 +29°C° 0.3 mm 4 mps 759 mmHg 74%
    12:00 +30°C° 0.3 mm 5 mps 759 mmHg 71%
    13:00 +30°C° 0.3 mm 5 mps 759 mmHg 69%
    14:00 +30°C° 0.2 mm 5 mps 758 mmHg 71%
    15:00 +29°C° 0.2 mm 5 mps 758 mmHg 74%
    16:00 +29°C° 0.2 mm 5 mps 758 mmHg 76%
    17:00 +28°C° 0.1 mm 5 mps 758 mmHg 80%
    18:00 +27°C° 0.1 mm 5 mps 758 mmHg 83%
    19:00 +26°C° 0.1 mm 5 mps 758 mmHg 87%
    20:00 +26°C° 0 mm 5 mps 759 mmHg 88%
    21:00 +26°C° 0 mm 5 mps 759 mmHg 90%
    22:00 +26°C° 0 mm 5 mps 760 mmHg 91%
    23:00 +25°C° 0.1 mm 5 mps 759 mmHg 91%

    Tomorrow, 21 February, Wednesday

    Time Temperature Precipitation Wind Pressure Humidity
    00:00 +25°C° 0.1 mm 5 mps 759 mmHg 92%
    01:00 +25°C° 0.1 mm 5 mps 759 mmHg 92%
    02:00 +25°C° 0.1 mm 5 mps 759 mmHg 92%
    03:00 +25°C° 0.1 mm 5 mps 759 mmHg 92%
    04:00 +25°C° 0.1 mm 5 mps 758 mmHg 92%
    05:00 +25°C° 0.1 mm 5 mps 759 mmHg 92%
    06:00 +25°C° 0.1 mm 5 mps 759 mmHg 92%
    07:00 +25°C° 0.1 mm 5 mps 759 mmHg 92%
    08:00 +27°C° 0.1 mm 5 mps 759 mmHg 85%
    09:00 +28°C° 0.1 mm 5 mps 760 mmHg 78%
    10:00 +30°C° 0.1 mm 5 mps 760 mmHg 71%
    11:00 +32°C° 0.1 mm 5 mps 760 mmHg 68%
    12:00 +32°C° 0.1 mm 5 mps 759 mmHg 65%
    13:00 +33°C° 0.1 mm 5 mps 759 mmHg 63%
    14:00 +32°C° 0.1 mm 5 mps 759 mmHg 65%
    15:00 +32°C° 0.1 mm 5 mps 758 mmHg 67%
    16:00 +30°C° 0.1 mm 6 mps 758 mmHg 70%
    17:00 +29°C° 0.1 mm 5 mps 758 mmHg 76%
    18:00 +28°C° 0.1 mm 5 mps 758 mmHg 81%
    19:00 +27°C° 0.1 mm 5 mps 758 mmHg 87%
    20:00 +26°C° 0 mm 5 mps 759 mmHg 89%
    21:00 +26°C° 0 mm 5 mps 759 mmHg 90%
    22:00 +26°C° 0 mm 5 mps 760 mmHg 92%
    23:00 +25°C° 0 mm 5 mps 760 mmHg 92%

    Day after tomorrow, 22 February, Thursday

    Time Temperature Precipitation Wind Pressure Humidity
    00:00 +25°C° 0 mm 5 mps 760 mmHg 92%
    01:00 +25°C° 0 mm 5 mps 760 mmHg 92%
    02:00 +25°C° 0.1 mm 5 mps 760 mmHg 93%
    03:00 +25°C° 0.1 mm 5 mps 759 mmHg 93%
    04:00 +25°C° 0.1 mm 5 mps 759 mmHg 93%
    05:00 +25°C° 0.2 mm 5 mps 759 mmHg 93%
    06:00 +25°C° 0.2 mm 5 mps 760 mmHg 93%
    07:00 +25°C° 0.2 mm 5 mps 760 mmHg 93%
    08:00 +27°C° 0.1 mm 5 mps 760 mmHg 87%
    09:00 +28°C° 0.1 mm 5 mps 761 mmHg 80%
    10:00 +29°C° 0.1 mm 5 mps 761 mmHg 73%
    11:00 +30°C° 0.1 mm 5 mps 761 mmHg 69%
    12:00 +32°C° 0.1 mm 5 mps 760 mmHg 65%
    13:00 +33°C° 0.1 mm 5 mps 759 mmHg 61%
    14:00 +32°C° 0.1 mm 5 mps 759 mmHg 64%
    15:00 +32°C° 0.1 mm 5 mps 758 mmHg 66%
    16:00 +30°C° 0.1 mm 4 mps 757 mmHg 69%
    17:00 +29°C° 0.2 mm 4 mps 758 mmHg 75%
    18:00 +28°C° 0.2 mm 4 mps 758 mmHg 82%
    19:00 +26°C° 0.2 mm 4 mps 758 mmHg 88%
    20:00 +26°C° 0.1 mm 4 mps 759 mmHg 90%
    21:00 +26°C° 0.1 mm 5 mps 759 mmHg 91%
    22:00 +26°C° 0.1 mm 5 mps 760 mmHg 92%
    23:00 +25°C° 0.1 mm 5 mps 760 mmHg 93%

    23 February, Friday

    Time Temperature Precipitation Wind Pressure Humidity
    00:00 +25°C° 0.1 mm 5 mps 760 mmHg 93%
    01:00 +25°C° 0.1 mm 5 mps 760 mmHg 93%
    02:00 +25°C° 0.2 mm 5 mps 759 mmHg 93%
    03:00 +25°C° 0.2 mm 5 mps 759 mmHg 93%
    04:00 +25°C° 0.2 mm 5 mps 759 mmHg 93%
    05:00 +25°C° 0.1 mm 5 mps 759 mmHg 92%
    06:00 +25°C° 0.1 mm 5 mps 759 mmHg 92%
    07:00 +25°C° 0.1 mm 5 mps 760 mmHg 91%
    08:00 +26°C° 0.1 mm 5 mps 760 mmHg 85%
    09:00 +28°C° 0.1 mm 5 mps 761 mmHg 78%
    10:00 +29°C° 0.1 mm 5 mps 761 mmHg 71%
    11:00 +30°C° 0.1 mm 5 mps 760 mmHg 69%
    12:00 +30°C° 0.1 mm 5 mps 760 mmHg 66%
    13:00 +32°C° 0.1 mm 5 mps 759 mmHg 64%
    14:00 +32°C° 0.1 mm 5 mps 758 mmHg 65%
    15:00 +30°C° 0.1 mm 5 mps 758 mmHg 67%
    16:00 +30°C° 0.1 mm 5 mps 757 mmHg 68%
    17:00 +29°C° 0.2 mm 5 mps 757 mmHg 75%
    18:00 +27°C° 0.2 mm 5 mps 758 mmHg 82%
    19:00 +26°C° 0.2 mm 5 mps 758 mmHg 89%
    20:00 +26°C° 0.1 mm 5 mps 758 mmHg 91%
    21:00 +25°C° 0.1 mm 4 mps 759 mmHg 92%
    22:00 +25°C° 0.1 mm 4 mps 759 mmHg 94%
    23:00 +25°C° 0.1 mm 4 mps 759 mmHg 94%

    24 February, Saturday

    Time Temperature Precipitation Wind Pressure Humidity
    00:00 +25°C° 0.1 mm 4 mps 759 mmHg 95%
    01:00 +25°C° 0.1 mm 4 mps 759 mmHg 95%
    02:00 +25°C° 0.2 mm 4 mps 759 mmHg 95%
    03:00 +25°C° 0.2 mm 4 mps 758 mmHg 95%
    04:00 +23°C° 0.2 mm 4 mps 758 mmHg 95%
    05:00 +24°C° 0.2 mm 3 mps 758 mmHg 95%
    06:00 +24°C° 0.2 mm 3 mps 759 mmHg 95%
    07:00 +24°C° 0.2 mm 3 mps 759 mmHg 95%
    08:00 +26°C° 0.1 mm 3 mps 759 mmHg 87%
    09:00 +28°C° 0.1 mm 3 mps 760 mmHg 79%
    10:00 +29°C° 0.1 mm 3 mps 760 mmHg 71%
    11:00 +30°C° 0.1 mm 3 mps 759 mmHg 66%
    12:00 +31°C° 0.1 mm 3 mps 759 mmHg 62%
    13:00 +33°C° 0.1 mm 3 mps 758 mmHg 57%
    14:00 +33°C° 0 mm 3 mps 758 mmHg 59%
    15:00 +31°C° 0 mm 3 mps 757 mmHg 62%
    16:00 +31°C° 0 mm 3 mps 756 mmHg 64%
    17:00 +29°C° 0 mm 3 mps 757 mmHg 72%
    18:00 +27°C° 0 mm 3 mps 757 mmHg 81%
    19:00 +26°C° 0 mm 3 mps 757 mmHg 89%
    20:00 +25°C° 0.1 mm 3 mps 758 mmHg 91%
    21:00 +25°C° 0.1 mm 3 mps 759 mmHg 93%
    22:00 +25°C° 0.1 mm 2 mps 759 mmHg 94%
    23:00 +24°C° 0.3 mm 2 mps 759 mmHg 95%

    25 February, Sunday

    Time Temperature Precipitation Wind Pressure Humidity
    00:00 +24°C° 0.3 mm 2 mps 759 mmHg 95%
    01:00 +24°C° 0.3 mm 2 mps 759 mmHg 95%
    02:00 +24°C° 0.2 mm 2 mps 758 mmHg 95%
    03:00 +24°C° 0.2 mm 2 mps 758 mmHg 95%
    04:00 +24°C° 0.2 mm 1 mps 758 mmHg 95%
    05:00 +24°C° 0.2 mm 2 mps 758 mmHg 95%
    06:00 +24°C° 0.2 mm 2 mps 759 mmHg 95%
    07:00 +24°C° 0.2 mm 2 mps 759 mmHg 95%
    08:00 +26°C° 0.1 mm 2 mps 760 mmHg 88%
    09:00 +27°C° 0.1 mm 2 mps 760 mmHg 82%
    10:00 +29°C° 0.1 mm 2 mps 760 mmHg 76%
    11:00 +29°C° 0.2 mm 2 mps 760 mmHg 73%
    12:00 +30°C° 0.2 mm 2 mps 759 mmHg 70%
    13:00 +31°C° 0.2 mm 2 mps 759 mmHg 67%
    14:00 +30°C° 0.3 mm 3 mps 758 mmHg 68%
    15:00 +30°C° 0.3 mm 3 mps 758 mmHg 69%
    16:00 +30°C° 0.3 mm 3 mps 757 mmHg 70%
    17:00 +29°C° 0.1 mm 3 mps 757 mmHg 76%
    18:00 +27°C° 0.1 mm 3 mps 758 mmHg 82%
    19:00 +26°C° 0.1 mm 3 mps 758 mmHg 89%
    20:00 +25°C° 0.2 mm 3 mps 759 mmHg 90%
    21:00 +25°C° 0.2 mm 3 mps 759 mmHg 92%
    22:00 +25°C° 0.2 mm 3 mps 760 mmHg 94%
    23:00 +25°C° 0.1 mm 2 mps 759 mmHg 95%
    Show more